AirNav   Pilot Hours Calculator
 
 390 users online  

99MO Parkland Health Center Heliport
Bonne Terre, Missouri, USA

GOING TO BONNE TERRE?


FAA INFORMATION EFFECTIVE 08 OCTOBER 2020

Location

FAA Identifier: 99MO
Lat/Long: 37-54-43.1100N 090-31-55.6700W
37-54.718500N 090-31.927833W
37.9119750,-90.5321306
(estimated)
Elevation: 850 ft. / 259 m (estimated)
Variation: 01E (1995)
From city: 1 mile S of BONNE TERRE, MO
Time zone: UTC -5 (UTC -6 during Standard Time)
Zip code: 63628

Heliport Operations

Heliport use: Private use, FOR MEDICAL USE ONLY.
Activation date: 09/1996
Control tower: no
ARTCC: KANSAS CITY CENTER
FSS: COLUMBIA FLIGHT SERVICE STATION
Attendance: CONTINUOUS
Wind indicator: yes
Segmented circle: no
Lights: FOR PERIMETER LIGHTS CALL 573-760-8163.

Heliport Communications

WX AWOS-3PT at FAM (10 nm SE): 119.275 (573-756-6042)

Nearby radio navigation aids

VOR radial/distance  VOR name  Freq  Var
FAMr314/20.1FARMINGTON VORTAC115.7001E

Heliport Services

Runway Information

Helipad H1

Dimensions: 40 x 40 ft. / 12 x 12 m
Surface: asphalt
Latitude: 37-54.718500N
Longitude: 090-31.927833W
Elevation: 850.0 ft.
Traffic pattern: leftleft

Heliport Ownership and Management from official FAA records

Ownership: Privately-owned
Owner: PARKLAND HEALTH CENTER, BONNE TERRE
7245 RAIDER ROAD
BONNE TERRE, MO 63628
Phone (573) 756-6453
Manager: LYNN RASNICK, ADMIN
7245 RAIDER ROAD
BONNE TERRE, MO 63628
Phone (573) 756-6453

Additional Remarks

A52-H1 40 FT POWER LINE 75 FT E & 75 FT BLDG 200 FT N OF HELIPAD.
OWNER DESIRES ARPT NOT BE CHARTED.
FOR CD CTC KANSAS CITY ARTCC AT 913-254-8508.

Instrument Procedures

There are no published instrument procedures at 99MO.

Some nearby airports with instrument procedures:

8WC - Washington County Airport (9 nm W)
KFAM - Farmington Regional Airport (10 nm SE)
KFES - Festus Memorial Airport (18 nm N)
H88 - A Paul Vance Fredericktown Regional Airport (22 nm SE)
KPCD - Perryville Regional Airport (32 nm E)
 
Loc | Ops | Rwys | IFR | FBO | Links
Com | Nav | Svcs | Stats | Notes
Area around 99MO (Parkland Health Center Heliport)
 
Road maps at: MapQuest Bing Google
 
Aerial photo
No photo
 
Sectional chart

 
Airport distance calculator
Flying to Parkland Health Center Heliport? Find the distance to fly.

From to 99MO

Sunrise and sunset
Times for 23-Oct-2020
 Local
(UTC-5)
 Zulu
(UTC)
Morning civil twilight06:5411:54
Sunrise07:2112:21
Sunset18:1223:12
Evening civil twilight18:3923:39

Current date and time
Zulu (UTC)  23-Oct-2020 09:24:12
Local (UTC-5)  23-Oct-2020 04:24:12
 
METAR
KFAM 
10nm SE 
230856Z AUTO 21006KT 10SM SCT037 19/19 A2997 RMK AO2 SLP151 T01940189 53001
TAF
KCPS 
43nm NE 
230520Z 2306/2406 18008KT P6SM FEW250 FM231300 26007KT 6SM -SHRA BR OVC026 FM231500 30011G17KT 6SM -SHRA BR OVC011 FM232100 33013G20KT P6SM OVC022 FM240200 34010KT P6SM BKN020
KSUS 
45nm N 
230520Z 2306/2406 18008KT P6SM FEW250 FM231300 26007KT 6SM -SHRA BR OVC026 FM231500 31011G17KT 6SM -SHRA BR OVC011 FM232100 33013G20KT P6SM OVC022 FM240200 34010KT P6SM BKN020
KBLV 
50nm NE 
230800Z 2308/2414 18006KT 9999 SCT020 QNH2989INS BECMG 2313/2314 21010G20KT 9000 -SHRA OVC015 QNH2991INS TEMPO 2315/2317 30020G30KT 8000 -TSRA OVC010CB BECMG 2316/2317 32010G20KT 8000 -SHRA OVC010 QNH2994INS BECMG 2322/2323 32015G20KT 9999 NSW OVC020 QNH3006INS TX22/2316Z TN07/2408Z
NOTAMs
Click for the latest NOTAMs
NOTAMs are issued by the DoD/FAA and will open in a separate window not controlled by AirNav.

 

 
 

Would you like to see your business listed on this page?

 If your business provides an interesting product or service to pilots, flight crews, aircraft, or users of the Parkland Health Center Heliport, you should consider listing it here.  To start the listing process, click on the button below
 
Add a business
 

Other Pages about Parkland Health Center Heliport

Update a link
 
Copyright © AirNav, LLC. All rights reserved. Privacy Policy  Contact